Flag for U.S.A. Weather past 2 weeks in Montgomery, Alabama, U.S.A.

Now
63 °F

Drizzle. Mostly cloudy.


Feels Like: 63 °F
Forecast: 58 / 82 °F
Wind: 7 mph from North

Location: Maxwell Air Force Base / Montgomery

Current Time: Apr 1, 2015 at 6:06:25 AM

Latest Report: Apr 1, 2015 at 4:59 AM


Visibility: 10 mi

Pressure: 30.07 "Hg

Humidity: 83%

Dew point: 57 °F

Location of MontgomeryLocation

Historic Weather in Montgomery — Graph

°F

Montgomery temperature yesterday

Maximum temperature yesterday: 81 °F (at 4:58 PM)
Minimum temperature yesterday: 53 °F (at 1:58 AM)
Average temperature yesterday: 66 °F

Past Weeks' High & Low Weather Summary

 TemperatureHumidityPressure
High82 °F (Mar 17, 3:58 PM)100% (Mar 20, 6:03 AM)30.41 "Hg (Mar 20, 6:03 AM)
Low37 °F (Mar 28, 6:58 AM)27% (Mar 29, 11:58 AM)29.78 "Hg (Mar 26, 5:58 PM)
Average62 °F76%30.06 "Hg
* Reported Mar 17 4:58 AM — Apr 1 4:59 AM, Montgomery, Weather by CustomWeather, © 2015

Note: Actual official high and low records may vary slightly from our data, if they occured in-between our weather recording intervals... More about our weather records

Advertising

Montgomery weather history for previous 24 hours

 ConditionsComfort  
Time TempWeatherWind HumidityBarometerVisibility
4:59 AM
Wed, Apr 1
63 °FDrizzle. Mostly cloudy.7 mph83%30.07 "Hg10 mi
3:58 AM65 °FMostly cloudy.10 mph74%30.03 "Hg10 mi
2:58 AM63 °FClear.2 mph93%29.98 "Hg10 mi
1:58 AM62 °FClear.No wind87%29.98 "Hg10 mi
12:58 AM64 °FClear.3 mph80%29.98 "Hg10 mi
11:58 PM
Tue, Mar 31
66 °FClear.2 mph72%29.97 "Hg10 mi
10:58 PM65 °FClear.3 mph70%29.98 "Hg10 mi
9:58 PM67 °FClear.3 mph63%29.98 "Hg10 mi
8:58 PM69 °FClear.6 mph59%29.96 "Hg10 mi
7:59 PM73 °FMostly cloudy.2 mph50%29.97 "Hg10 mi
7:58 PM74 °FLight rain. Mostly cloudy.2 mph50%29.98 "Hg10 mi
6:58 PM77 °FScattered clouds.6 mph43%29.96 "Hg10 mi
5:58 PM80 °FSunny.6 mph40%29.94 "Hg10 mi
4:58 PM81 °FSunny.7 mph37%29.94 "Hg10 mi
3:58 PM80 °FScattered clouds.10 mph43%29.96 "Hg10 mi
2:58 PM80 °FScattered clouds.10 mph45%29.98 "Hg10 mi
1:58 PM78 °FScattered clouds.9 mph52%30.03 "Hg10 mi
12:58 PM78 °FPassing clouds.9 mph55%30.06 "Hg10 mi
11:58 AM76 °FPassing clouds.10 mph62%30.09 "Hg10 mi
10:58 AM72 °FPassing clouds.7 mph71%30.10 "Hg10 mi
9:58 AM67 °FPartly sunny.7 mph83%30.11 "Hg10 mi
8:58 AM62 °FSunny.No wind90%30.11 "Hg10 mi
7:58 AM56 °FCool.N/A100%30.10 "HgN/A
7:03 AM54 °FFog.No wind94%30.08 "Hg1 mi
6:58 AM54 °FFog.No wind94%30.09 "Hg1 mi
Weather by CustomWeather, © 2015

See weather overviewHow to use our weather pages